Flag for U.S.A. Weather past 2 weeks in Fargo, North Dakota, U.S.A.

Now
50 °F

Sunny.


Feels Like: 43 °F
Forecast: 37 / 51 °F
Wind: 24 mph from South

Location: Hector International Airport

Current Time: Mar 28, 2015 at 8:40:47 PM

Latest Report: Mar 28, 2015 at 7:53 PM


Visibility: 10 mi

Pressure: 29.74 "Hg

Humidity: 44%

Dew point: 29 °F

Location of FargoLocation

Historic Weather in Fargo — Graph

°F

Fargo temperature yesterday

Maximum temperature yesterday: 37 °F (at 3:53 PM)
Minimum temperature yesterday: 10 °F (at 4:53 AM)
Average temperature yesterday: 25 °F

Past Weeks' High & Low Weather Summary

 TemperatureHumidityPressure
High75 °F (Mar 15, 2:53 PM)96% (Mar 14, 7:53 AM)30.58 "Hg (Mar 14, 7:53 AM)
Low10 °F (Mar 27, 4:53 AM)18% (Mar 17, 3:53 PM)29.66 "Hg (Mar 25, 5:00 AM)
Average36 °F61%30.14 "Hg
* Reported Mar 13 6:53 PM — Mar 28 6:53 PM, Fargo, Weather by CustomWeather, © 2015

Note: Actual official high and low records may vary slightly from our data, if they occured in-between our weather recording intervals... More about our weather records

Advertising

Fargo weather history for previous 24 hours

 ConditionsComfort  
Time TempWeatherWind HumidityBarometerVisibility
6:53 PM
Sat, Mar 28
52 °FSunny.24 mph41%29.79 "Hg9 mi
5:53 PM54 °FSunny.23 mph38%29.81 "Hg10 mi
4:53 PM53 °FSunny.28 mph38%29.87 "Hg9 mi
3:53 PM52 °FSunny.26 mph38%29.90 "Hg10 mi
2:53 PM49 °FSunny.28 mph41%29.95 "Hg10 mi
1:53 PM48 °FSunny.23 mph43%29.99 "Hg10 mi
12:53 PM47 °FPassing clouds.22 mph44%30.03 "Hg10 mi
11:53 AM44 °FPassing clouds.22 mph51%30.07 "Hg10 mi
10:53 AM39 °FSunny.16 mph60%30.11 "Hg10 mi
9:53 AM35 °FSunny.20 mph64%30.13 "Hg10 mi
8:53 AM30 °FSunny.16 mph72%30.15 "Hg10 mi
7:53 AM27 °FClear.15 mph72%30.16 "Hg10 mi
6:53 AM26 °FClear.13 mph71%30.16 "Hg10 mi
5:53 AM27 °FClear.14 mph66%30.14 "Hg10 mi
4:53 AM27 °FClear.12 mph66%30.14 "Hg10 mi
3:53 AM28 °FClear.9 mph66%30.14 "Hg10 mi
2:53 AM27 °FClear.7 mph66%30.15 "Hg10 mi
1:53 AM29 °FPassing clouds.7 mph61%30.14 "Hg10 mi
12:53 AM32 °FOvercast.8 mph56%30.14 "Hg10 mi
11:53 PM
Fri, Mar 27
31 °FMostly cloudy.9 mph67%30.15 "Hg10 mi
10:53 PM31 °FOvercast.8 mph69%30.16 "Hg10 mi
9:53 PM29 °FOvercast.7 mph79%30.15 "Hg10 mi
8:53 PM31 °FLight snow. Overcast.10 mph73%30.15 "Hg4 mi
Weather by CustomWeather, © 2015

See weather overviewHow to use our weather pages